Theta_e
353 355 357 357 357 354 351 351 354 356 357 357 357 355 355 356 357 356 356 355 355 354 354 355 356 356 355 357 362 363 362 362 361 360 360 358 357 360 368 371 375 372 374 375 374 374 374 372 371 371 371 370 369 369 369 369 368 367 366 366 365 366 366 366 365 365 365 364 364 364 364 362 362 362 363 362 362 362 361 361 361 361 362 362 362
348 352 353 354 354 353 351 349 350 352 354 354 356 356 355 356 356 356 356 355 354 354 355 353 355 355 353 352 355 359 360 358 358 358 358 356 355 357 366 370 375 373 374 375 375 375 374 373 372 372 371 371 370 370 369 368 368 368 367 366 366 366 366 366 365 365 364 364 363 363 362 363 363 363 362 362 362 362 362 362 361 362 363 363 362
344 347 350 351 348 347 347 349 349 350 353 354 349 352 354 354 354 354 353 350 350 351 352 350 351 352 352 351 350 351 354 354 355 357 356 355 353 354 357 369 373 375 374 375 375 374 375 374 373 373 373 371 371 370 370 369 369 367 367 367 366 367 366 366 366 365 365 365 364 364 364 363 363 362 362 362 362 363 363 363 363 363 363 363 363
341 340 344 345 342 341 341 340 341 340 341 342 339 343 345 345 346 347 345 343 341 342 346 347 346 346 348 349 350 348 349 350 350 353 354 354 352 352 353 357 370 377 376 375 376 375 375 374 373 373 373 372 371 370 370 370 369 368 368 367 367 367 367 367 366 366 365 365 365 364 364 364 364 363 363 363 363 363 363 363 363 363 363 363 364
342 340 348 336 336 334 334 338 335 334 334 335 335 343 342 340 342 346 344 344 343 339 341 341 342 343 343 345 347 348 348 348 348 348 350 351 352 352 353 357 363 379 379 376 376 375 375 374 373 373 372 372 370 371 370 370 369 369 369 368 368 367 368 367 367 366 365 365 365 365 364 364 364 364 364 364 364 364 364 364 364 364 363 363 363
342 340 342 337 335 335 334 334 335 335 336 338 340 340 340 340 339 340 352 346 339 337 337 338 340 341 343 343 344 345 347 347 346 346 347 347 349 352 353 356 365 370 374 378 378 376 375 374 374 373 372 372 371 371 370 370 369 369 369 368 367 367 367 367 367 367 365 365 365 365 365 365 365 365 365 365 364 364 364 364 364 364 364 363 363
344 340 341 337 334 334 335 334 335 341 339 339 337 337 337 337 342 341 337 336 334 338 343 339 338 339 340 346 343 342 343 344 345 346 346 346 346 351 352 354 363 368 371 372 378 378 376 374 374 374 373 372 371 370 370 369 369 368 368 367 367 367 367 367 367 367 367 366 366 366 366 365 366 365 365 365 365 365 364 364 364 364 363 363 364
345 343 339 339 335 332 332 333 335 337 337 342 345 340 340 342 342 339 336 334 340 337 338 337 339 341 341 343 343 347 343 343 343 343 345 345 346 350 352 354 360 364 371 368 370 374 378 374 374 374 374 373 372 371 371 369 368 368 366 366 366 367 366 366 367 367 367 367 367 367 367 367 366 366 365 365 365 365 364 364 365 365 365 365 365
347 346 341 340 338 335 332 332 335 331 328 330 344 345 341 342 344 347 339 341 339 337 337 339 339 340 340 339 340 344 342 342 342 343 344 343 345 350 352 353 359 371 366 367 367 369 376 378 375 375 375 373 372 372 371 370 370 369 369 367 366 366 367 366 366 366 367 367 368 367 367 367 367 366 366 365 365 365 365 365 365 365 365 365 365
350 348 344 341 340 339 338 335 338 341 343 348 347 349 347 345 345 347 347 344 342 340 339 340 341 340 340 339 340 341 340 341 343 352 345 342 343 347 351 353 357 363 365 365 365 367 369 376 378 376 376 375 373 373 372 371 371 370 370 369 368 367 365 366 366 366 366 367 368 368 367 367 367 367 366 365 365 365 365 365 364 363 364 364 364
352 351 347 344 343 341 341 343 346 346 350 349 347 349 351 350 346 346 349 346 344 345 344 343 344 342 342 342 342 342 342 342 344 342 344 345 344 347 350 352 353 358 364 365 363 363 364 368 374 373 372 376 374 374 373 372 372 371 370 370 369 368 367 366 365 366 366 366 367 368 368 368 368 367 366 366 365 365 366 365 365 365 364 364 364
352 352 350 349 344 343 343 346 348 347 346 346 345 346 347 347 345 344 344 347 350 349 346 343 343 342 343 343 343 342 342 343 342 343 344 345 345 346 346 349 352 353 358 363 364 363 362 363 371 372 370 372 375 374 374 373 373 372 371 370 370 370 368 367 366 365 366 366 366 366 367 368 367 367 367 366 366 366 366 366 366 365 365 364 364
355 352 351 354 350 346 347 349 353 353 350 348 347 348 347 345 347 353 347 344 343 345 345 346 342 340 342 342 342 342 344 345 344 344 344 345 346 346 344 346 349 352 354 357 361 364 364 363 364 369 369 366 371 375 374 374 373 372 372 371 371 370 370 369 368 367 367 366 366 366 366 368 368 367 367 367 366 366 366 366 366 366 365 365 365
357 354 354 351 351 350 349 351 355 354 353 354 352 358 355 351 350 346 350 345 343 346 346 345 339 337 336 337 340 343 344 345 345 346 346 347 347 346 346 345 345 348 352 353 355 359 363 365 365 366 367 366 365 369 371 371 371 373 372 371 371 371 370 370 369 369 368 367 367 366 366 366 368 368 367 367 367 367 366 366 366 365 365 365 365
354 358 355 354 353 353 352 354 355 356 355 351 352 352 351 350 348 346 344 345 345 348 345 344 338 341 341 339 335 336 341 342 343 345 345 346 346 345 346 345 345 345 347 349 351 353 356 361 365 367 366 365 364 365 368 370 369 372 372 371 371 371 371 370 370 370 369 368 368 367 367 366 367 367 368 367 367 366 366 366 365 365 365 365 364
357 357 358 356 356 355 356 356 356 357 354 351 350 351 351 351 350 349 346 343 344 343 347 346 344 342 335 337 336 335 334 334 336 342 348 350 349 348 347 346 347 347 347 344 346 349 351 354 357 364 367 366 364 364 366 367 369 372 372 372 371 370 371 371 371 370 369 369 368 368 368 367 366 366 366 367 366 365 365 365 364 364 364 364 363
360 359 360 357 357 357 356 357 357 356 356 353 352 352 353 352 352 350 348 346 345 344 346 348 347 347 342 340 335 333 333 336 339 340 344 344 346 345 345 346 346 345 345 343 344 346 348 350 352 358 365 366 365 364 364 366 366 369 369 373 372 371 369 371 371 371 370 370 369 369 368 368 367 366 366 366 365 364 363 363 363 363 364 363 363
358 361 361 361 358 358 358 358 357 358 358 356 354 351 351 352 352 352 350 349 347 346 344 348 348 349 348 346 344 337 336 339 337 334 341 345 345 346 346 346 346 346 346 344 342 343 348 348 350 354 362 365 365 364 364 364 367 365 365 366 372 372 368 370 371 371 371 371 370 369 369 368 368 367 366 366 365 364 364 363 363 363 363 363 362
351 357 359 361 359 359 360 359 359 358 360 357 354 353 352 351 353 351 350 351 348 344 344 345 348 349 350 349 347 347 345 340 336 337 335 340 342 343 344 346 346 347 347 348 348 346 346 349 350 351 359 365 366 365 364 364 366 366 367 367 369 371 369 368 371 371 371 371 370 369 369 368 368 368 367 366 365 365 364 364 364 364 363 362 362
349 351 355 357 359 358 359 359 359 358 358 357 355 355 354 354 353 351 350 350 347 345 344 347 344 344 348 348 348 349 347 346 344 340 338 335 338 342 344 345 346 347 347 348 348 348 347 345 349 350 353 360 365 366 365 365 364 364 366 369 368 370 370 368 369 371 372 372 371 370 369 369 368 368 367 366 366 365 365 365 365 364 364 363 363
352 351 352 355 361 359 358 358 357 357 360 356 355 354 353 351 351 350 350 351 350 350 348 347 347 346 345 344 346 345 346 347 346 344 339 336 336 337 339 343 345 345 346 348 348 348 348 346 344 348 352 354 358 364 366 365 365 365 367 369 368 368 370 371 369 370 371 372 371 370 369 369 368 367 367 366 366 365 365 365 365 365 364 364 364
353 353 352 351 354 360 359 357 357 357 360 357 355 354 353 352 352 352 352 350 351 351 349 347 348 348 347 345 342 343 344 344 343 343 342 340 336 337 339 339 338 341 344 345 346 347 348 347 346 344 346 350 353 357 362 365 366 366 367 369 369 368 369 372 370 370 371 371 371 370 370 369 368 367 367 366 366 366 365 365 365 365 365 364 364
353 357 354 353 353 356 358 358 358 360 359 356 354 353 353 353 353 353 353 352 351 350 350 348 348 348 348 347 345 344 343 341 341 342 342 340 338 339 340 341 341 341 344 345 346 347 346 346 345 343 344 347 351 354 356 360 369 369 371 371 370 369 368 369 371 371 370 372 372 370 370 369 368 367 367 366 366 366 366 366 366 365 365 364 364
347 350 355 357 356 355 358 357 357 355 354 354 353 352 351 351 351 351 351 352 352 351 348 347 347 347 346 347 346 346 346 345 345 345 342 341 341 339 339 340 341 342 346 347 349 348 348 348 348 347 346 346 350 353 355 358 362 371 371 371 370 370 369 369 371 372 371 371 372 371 369 369 368 367 367 367 366 366 366 366 365 365 365 365 365
348 352 355 356 356 354 354 355 354 354 353 352 352 351 350 350 349 350 350 350 350 350 348 347 346 345 346 347 347 347 347 348 348 347 346 345 342 339 340 341 338 340 343 344 344 346 347 347 348 348 345 344 348 355 355 357 358 366 372 368 371 370 370 370 370 373 373 372 372 372 369 368 368 367 367 367 366 366 366 366 366 365 365 365 365
344 347 350 353 355 355 356 355 354 354 354 353 352 352 352 351 351 350 350 350 350 349 348 349 347 347 348 346 346 346 346 347 347 347 345 344 341 340 340 340 340 339 342 341 343 342 342 346 346 347 347 350 351 353 356 357 359 367 371 368 365 367 368 369 370 371 373 374 373 372 372 368 368 368 368 368 367 367 366 366 366 366 365 365 365
345 347 350 352 353 354 353 352 352 351 351 351 353 353 352 353 353 352 353 352 350 349 348 348 348 347 346 345 343 342 340 339 339 340 343 344 343 342 340 336 335 337 337 339 340 340 341 344 347 347 347 350 350 353 355 358 362 367 370 368 365 363 365 366 368 369 371 374 374 373 374 372 369 369 370 370 369 368 367 368 368 367 366 365 366
345 348 349 351 351 352 353 353 352 351 351 351 350 350 350 349 347 348 347 352 350 348 348 348 348 347 346 346 344 342 342 341 340 338 338 339 340 340 339 338 333 330 333 334 336 337 342 341 344 347 347 352 360 357 359 361 360 368 372 366 364 363 361 361 362 366 369 372 374 375 375 375 372 370 370 371 371 370 369 369 369 370 369 366 366
346 349 349 349 350 349 349 350 350 348 347 348 348 346 343 341 340 337 340 343 348 349 349 348 348 348 347 346 345 344 343 341 340 341 340 339 338 338 339 339 338 334 330 330 331 334 338 343 340 344 358 363 361 362 356 352 356 361 361 364 364 363 359 357 358 360 364 367 369 371 373 373 373 372 371 371 372 371 371 370 370 370 369 369 367
348 348 348 348 348 353 347 344 343 342 341 341 340 338 336 336 337 337 338 339 340 342 344 343 342 341 342 341 340 339 341 341 341 341 341 340 338 339 340 342 342 338 335 332 332 335 337 341 344 342 350 359 362 360 356 353 358 357 354 360 362 362 359 358 357 356 357 358 360 363 366 368 370 371 371 371 371 371 370 371 371 370 370 370 369
348 347 345 342 342 342 343 340 336 335 334 334 335 336 336 336 338 337 337 338 338 336 336 339 340 341 340 340 340 340 341 342 342 342 343 343 342 343 342 342 340 339 337 335 330 335 341 338 342 348 348 350 359 358 361 358 358 357 353 356 358 361 360 359 358 356 354 354 354 356 360 364 367 371 372 372 371 370 369 369 369 369 369 369 369
346 344 342 339 336 336 337 337 335 334 335 336 336 336 336 337 337 339 340 339 338 337 338 340 342 342 340 340 341 341 342 342 342 343 343 343 343 341 341 341 341 341 340 337 334 335 342 343 344 347 350 351 352 351 352 356 364 361 355 357 358 360 359 358 357 356 354 352 350 351 352 357 363 367 370 371 371 370 369 369 369 369 369 369 369
347 343 337 335 334 334 334 337 335 334 334 334 334 336 336 336 337 339 339 340 339 338 339 339 339 339 338 336 336 337 338 338 339 340 340 341 341 342 343 342 341 342 342 340 338 339 343 347 347 347 350 351 349 350 350 351 353 354 356 355 356 356 357 357 357 353 352 351 350 349 348 349 355 361 366 370 370 370 370 369 368 367 368 367 366
345 340 336 335 337 336 335 334 335 334 334 334 333 334 334 333 335 342 342 340 338 338 337 336 337 338 338 337 337 338 339 339 340 340 341 341 341 340 339 340 340 340 343 343 342 341 339 342 345 349 349 352 349 351 350 350 350 354 353 354 356 355 354 355 355 355 352 351 349 348 348 347 349 353 359 365 369 370 370 369 367 366 365 363 361
339 338 336 336 338 337 336 337 335 335 335 335 336 338 339 338 337 337 339 338 336 336 335 335 335 336 337 338 338 339 340 339 339 340 340 339 339 338 339 340 340 340 341 343 341 340 340 341 345 345 346 347 348 349 350 351 352 352 352 352 353 355 355 354 354 355 351 349 348 348 347 346 346 348 351 356 361 365 365 364 362 359 356 354 353
342 341 342 338 337 338 337 338 338 338 338 338 337 337 337 336 336 335 335 335 335 334 335 335 335 336 336 336 337 337 338 338 339 340 340 341 340 340 339 340 340 340 342 343 345 343 341 340 340 344 344 344 345 348 350 352 351 352 351 352 352 353 353 355 354 354 353 351 349 348 346 345 344 343 344 346 350 355 357 354 351 349 347 347 347
343 344 345 345 342 340 341 340 340 339 338 338 337 337 337 337 336 335 335 335 336 336 337 337 343 339 338 338 339 339 339 338 338 338 339 339 340 340 340 340 341 341 342 343 343 344 342 340 341 343 345 345 346 347 349 348 348 347 346 348 349 350 352 355 357 358 354 352 350 349 347 346 345 343 342 341 342 344 346 346 346 345 343 343 343
343 343 344 344 346 343 342 342 341 340 340 339 339 338 338 338 338 338 338 338 338 339 339 340 340 341 341 340 341 341 341 340 340 341 340 340 340 340 339 339 340 341 341 341 342 342 343 343 343 342 342 344 344 345 347 348 346 345 344 345 345 346 347 349 353 358 359 358 356 355 349 347 344 342 343 342 340 340 341 343 344 343 342 340 340
346 346 346 346 347 347 346 345 344 343 342 341 340 340 340 340 340 340 340 340 340 340 340 340 340 340 340 341 341 342 342 342 341 341 341 341 341 340 341 341 341 340 340 340 341 341 341 341 342 342 342 343 343 342 344 345 346 345 343 341 342 345 346 347 347 352 355 357 355 354 354 353 352 350 343 339 339 339 339 340 342 343 344 340 337
347 348 348 349 348 349 348 347 347 346 345 343 342 342 341 341 341 341 341 341 341 340 341 341 341 341 342 342 343 344 344 343 343 342 342 341 342 340 341 341 340 340 339 339 339 339 339 339 339 339 339 340 338 342 343 341 339 340 341 341 339 341 342 345 348 349 351 352 352 354 354 352 351 350 346 343 342 341 341 340 341 345 347 344 338
351 348 349 348 349 349 349 348 347 347 346 345 345 344 342 342 342 341 341 342 342 342 341 342 342 343 343 344 345 345 347 351 350 349 347 347 341 339 340 341 340 339 339 339 339 338 338 338 337 338 337 336 337 337 337 338 339 339 341 341 341 342 343 344 346 349 351 350 351 351 352 353 352 351 351 350 350 346 345 344 346 346 348 346 341
348 349 348 347 346 346 346 346 345 346 345 345 350 350 350 346 343 343 342 342 341 341 342 342 342 343 343 343 346 351 350 351 351 351 350 348 347 344 341 340 341 340 339 338 337 338 337 337 337 337 336 336 338 338 338 339 341 341 340 340 339 341 341 342 344 346 349 349 348 347 350 353 353 351 351 351 353 352 351 348 348 349 345 341 339
343 343 345 342 342 343 343 343 343 344 345 346 349 343 343 345 349 345 343 342 342 341 341 340 340 341 342 343 343 348 350 352 351 349 347 346 346 345 344 345 345 342 338 337 337 337 337 337 337 337 337 337 338 339 339 340 340 340 340 340 340 340 338 337 336 339 344 349 346 346 347 351 353 350 352 352 353 354 354 353 345 342 342 339 338
342 343 341 341 341 341 342 341 341 342 343 347 340 340 342 342 347 345 343 342 341 340 340 339 339 340 340 340 341 342 343 343 343 344 346 346 344 342 342 342 342 342 343 341 338 336 335 335 335 336 337 337 338 338 338 338 339 339 340 340 339 339 338 338 338 337 339 348 345 343 344 348 351 351 350 352 354 355 355 348 340 340 339 339 338
340 338 338 338 338 338 339 338 338 339 339 342 337 337 337 337 338 345 341 340 339 338 338 338 338 338 339 340 340 341 341 347 348 345 343 343 346 345 343 342 341 340 337 337 339 341 339 336 335 335 336 337 336 338 340 340 340 338 338 339 340 340 340 339 340 341 342 347 346 344 343 346 348 348 348 352 354 354 355 344 340 339 338 338 336
336 336 336 336 336 336 336 336 337 338 337 342 336 335 335 335 336 339 338 337 337 337 337 337 337 337 337 338 337 338 339 341 342 342 341 341 340 341 341 342 342 343 341 338 336 336 339 339 337 335 337 338 337 338 341 342 340 339 338 338 339 339 340 340 343 344 344 348 345 343 341 343 346 346 345 349 352 354 354 345 336 336 336 336 335
334 334 334 334 335 337 337 336 336 336 337 338 334 334 332 331 332 338 336 336 336 336 336 336 336 337 337 337 337 337 338 338 339 341 339 339 339 339 338 338 338 339 340 340 341 341 341 340 339 339 339 340 340 340 341 341 341 342 342 341 341 341 342 343 342 341 340 343 345 341 337 341 342 343 344 346 349 351 353 341 333 334 334 335 334
334 334 333 334 334 334 335 334 334 333 335 332 330 330 328 328 331 336 335 334 334 334 334 335 336 336 337 337 337 337 338 338 341 341 343 341 338 337 336 336 337 338 339 343 339 341 345 343 341 341 341 342 340 341 341 342 341 342 343 345 343 340 338 337 336 339 339 341 345 342 339 339 341 342 343 345 346 347 350 352 339 332 333 333 333
332 331 332 333 334 333 333 334 333 333 333 332 329 326 326 326 330 332 333 333 333 333 333 334 335 336 336 337 337 337 337 337 339 333 334 343 338 336 336 336 336 337 337 340 338 334 334 333 333 334 334 334 333 331 330 332 338 341 340 335 335 339 337 335 336 337 338 339 342 344 341 338 341 341 341 343 344 344 346 349 350 335 331 331 331
330 331 331 331 332 333 333 332 333 332 332 334 328 324 323 324 331 331 332 332 331 332 332 333 334 335 336 340 343 338 337 337 335 331 331 338 336 335 335 334 334 334 335 338 340 340 333 330 330 330 331 331 331 331 332 331 330 335 337 336 338 337 336 336 334 336 339 340 341 346 341 340 342 340 340 339 340 343 345 347 348 344 332 330 329
329 329 331 330 330 330 331 331 337 335 333 333 326 324 323 322 329 331 331 329 329 329 329 330 332 334 335 339 341 340 340 338 329 328 328 336 335 334 334 333 332 333 335 336 337 337 337 337 337 336 335 334 334 333 336 334 334 338 336 336 338 336 334 335 336 336 334 336 341 346 339 341 342 341 340 335 335 341 343 345 345 345 340 338 338
Wind_Speed
6 7 6 7 6 6 5 6 7 7 6 7 7 7 6 6 7 7 6 6 7 7 7 8 7 7 7 7 7 7 7 7 7 7 7 7 7 8 14 14 13 15 15 16 16 17 18 18 18 19 19 20 21 20 19 19 18 18 18 18 18 18 18 18 18 18 18 18 18 17 17 17 16 16 16 16 15 15 14 15 14 15 15 14 14
7 6 6 7 6 7 7 7 7 8 6 7 6 5 7 7 7 7 7 7 7 8 7 7 8 7 6 7 7 7 7 7 8 7 7 7 7 8 14 15 15 15 16 16 17 17 18 18 19 19 19 20 20 20 19 19 18 18 18 19 19 19 19 19 19 18 18 18 18 18 17 17 16 16 17 16 16 16 15 15 15 15 15 15 15
6 6 6 7 6 5 7 7 6 7 6 7 3 7 7 7 8 8 7 7 8 7 6 7 6 7 6 7 8 7 7 8 8 8 7 7 7 7 9 16 17 16 16 17 17 18 18 18 19 19 19 20 20 19 19 19 19 19 19 19 20 19 19 19 18 18 18 18 18 18 17 17 18 17 17 16 16 15 15 15 15 15 15 15 15
7 6 7 7 6 6 7 7 8 7 6 6 6 8 8 9 9 7 6 7 8 7 6 6 6 7 6 8 8 7 8 7 8 8 8 7 7 7 7 8 15 17 17 17 18 19 19 19 19 19 19 19 20 20 20 19 20 20 20 20 20 20 20 19 19 19 18 18 18 18 18 18 18 17 17 17 16 16 16 16 16 16 16 16 15
7 6 5 6 7 7 7 7 7 6 5 5 6 4 4 5 2 1 0 1 1 4 1 3 5 6 6 7 6 6 7 7 7 7 8 8 7 7 7 7 7 13 17 18 19 19 19 19 19 19 19 19 20 20 20 20 21 21 20 20 20 21 21 20 20 19 19 18 18 18 19 18 18 18 17 16 16 16 16 16 16 16 16 16 16
7 7 6 6 6 6 4 4 4 4 4 3 3 3 4 2 3 0 2 2 3 3 3 4 3 3 2 3 5 5 5 6 7 8 8 8 7 6 7 6 6 6 8 17 19 18 19 19 19 19 19 19 20 20 20 21 22 22 22 21 21 21 21 21 20 19 19 19 18 18 18 18 18 17 17 16 16 16 16 16 16 16 16 16 16
6 7 6 5 5 5 4 6 4 3 3 5 5 5 6 7 3 1 1 1 2 3 3 3 3 5 4 2 2 4 4 5 6 7 6 7 6 7 7 6 6 6 7 7 14 19 19 20 19 19 20 20 20 21 22 23 23 23 22 22 22 22 22 21 20 20 19 19 19 19 18 18 18 18 17 17 17 16 16 16 15 15 16 16 15
6 5 5 5 5 6 6 4 4 3 4 5 3 5 5 2 1 1 2 3 2 4 3 3 3 3 3 3 3 1 3 4 5 5 5 5 6 6 6 6 7 8 8 7 7 11 19 20 20 19 20 20 20 21 23 23 24 24 23 22 22 22 22 21 21 20 20 20 20 20 19 18 18 18 17 17 17 17 16 16 15 15 15 15 15
7 6 6 5 5 4 5 4 2 2 4 4 5 5 3 2 2 3 3 1 2 3 4 4 5 4 3 3 5 3 3 3 4 4 5 5 6 7 6 7 8 8 7 7 7 8 15 20 19 20 20 21 20 21 23 23 23 23 24 23 23 22 22 22 21 20 20 20 20 20 20 19 18 18 18 17 17 17 16 16 16 15 15 16 15
7 6 6 6 4 4 4 4 2 2 4 2 2 0 1 2 1 1 1 1 1 3 4 4 4 5 5 5 5 5 6 4 3 3 5 5 5 5 7 7 7 8 7 7 8 8 7 14 19 19 21 20 21 21 22 23 24 24 24 24 23 23 22 22 22 22 21 21 21 20 20 20 18 18 18 18 18 17 17 17 17 17 16 16 16
6 6 6 6 5 6 5 5 2 1 2 4 3 2 1 0 1 2 0 2 2 3 3 4 4 5 5 6 5 5 5 6 5 6 4 4 5 6 6 6 7 7 8 8 7 7 8 7 8 10 13 23 20 21 21 23 23 24 25 25 24 24 23 22 22 22 21 21 21 20 18 18 19 19 18 18 18 17 16 16 16 16 16 16 16
6 7 7 6 6 6 5 4 3 2 4 4 4 3 3 2 3 2 3 3 1 2 3 4 5 5 6 6 5 5 6 6 6 6 5 4 4 5 5 6 6 6 7 7 7 7 8 8 8 9 9 15 22 20 22 23 24 24 24 25 24 24 24 23 22 22 21 20 21 20 19 19 20 19 18 18 18 17 16 17 17 17 17 17 17
6 6 7 6 6 5 4 4 3 3 2 3 4 4 3 3 2 1 2 1 2 3 4 1 4 6 5 5 5 3 4 4 6 6 6 5 4 5 5 5 6 7 7 7 7 8 7 8 8 8 9 8 13 23 24 23 24 23 23 24 25 26 25 24 23 23 22 21 21 19 19 19 20 20 19 19 18 18 17 18 18 18 18 17 16
5 6 6 6 6 5 5 6 5 5 3 3 3 3 3 2 1 2 0 3 3 2 3 2 4 4 6 6 6 5 5 4 5 5 5 5 5 5 4 5 7 7 7 6 7 8 9 8 8 9 9 9 9 9 13 16 20 25 24 23 24 25 25 25 24 24 23 22 21 19 19 19 20 21 20 19 18 18 17 19 19 19 17 16 16
5 6 6 6 6 6 6 6 5 4 2 2 2 3 3 3 3 3 3 1 3 2 4 3 5 3 2 4 6 6 5 4 3 3 4 5 5 5 5 5 6 6 6 7 7 7 8 9 9 10 10 10 9 9 10 13 14 21 24 23 23 24 25 25 25 25 23 23 21 20 19 20 19 19 19 19 18 18 17 19 19 17 16 16 15
5 6 5 6 6 6 6 6 6 4 4 3 3 3 3 3 3 3 3 3 2 3 4 4 5 2 4 3 3 1 7 4 3 4 3 5 5 4 3 3 3 3 4 5 6 7 8 9 11 11 11 11 10 9 10 10 16 18 22 23 24 23 24 24 25 25 24 23 22 20 20 20 19 19 19 19 19 18 17 17 18 17 16 16 15
4 6 7 7 6 7 6 6 6 5 4 4 4 5 4 4 4 4 4 5 5 3 2 4 5 5 5 2 3 2 4 5 4 6 2 3 3 3 5 6 5 5 4 4 5 7 8 9 9 9 11 11 10 10 10 11 10 12 15 21 23 24 24 24 25 25 24 23 22 21 20 20 20 20 19 19 19 18 18 18 18 17 17 16 16
4 5 6 6 7 7 7 6 6 5 5 5 5 4 4 4 5 5 5 5 6 5 5 3 6 6 7 7 6 6 6 3 3 7 2 3 6 6 6 6 6 5 4 4 4 5 6 7 7 9 10 10 10 10 10 10 11 10 10 14 24 23 24 24 25 25 24 24 22 21 21 21 20 20 20 20 19 19 18 18 18 18 17 16 16
4 5 6 6 6 7 7 6 6 6 5 5 5 6 6 5 4 5 6 5 4 6 7 6 3 4 5 7 7 6 5 4 6 4 10 3 3 2 4 5 5 6 6 6 6 5 5 6 7 9 9 9 10 10 10 11 13 14 17 19 22 23 24 24 25 25 25 24 23 22 21 21 21 20 20 20 19 19 19 19 19 18 17 16 16
6 5 6 6 6 6 6 6 6 6 6 6 6 6 5 4 4 5 5 5 5 6 7 7 6 4 4 4 3 4 4 5 6 7 6 8 12 3 4 5 6 7 7 7 7 7 6 5 6 7 7 9 9 9 10 11 10 12 11 18 20 22 23 24 25 26 26 25 23 23 22 22 21 21 21 21 20 20 20 20 19 19 18 17 17
5 5 5 6 6 7 7 7 7 7 6 6 6 5 6 6 5 5 6 6 5 6 6 6 6 7 4 3 4 7 8 6 4 3 6 6 9 8 7 3 4 5 5 5 6 6 6 6 6 6 6 8 9 10 10 10 10 11 12 18 21 22 22 22 24 26 25 25 24 23 22 22 22 21 21 21 21 20 20 20 20 19 18 18 18
4 5 5 5 5 6 6 8 8 7 6 6 6 6 6 6 6 6 6 6 5 5 7 6 6 5 5 5 4 4 5 5 6 6 6 7 10 9 7 8 9 5 3 4 5 6 5 5 4 5 6 6 8 9 10 10 10 10 13 20 21 22 22 22 24 24 25 25 24 23 23 22 22 22 22 21 21 21 21 21 21 20 19 19 18
4 4 5 6 6 6 6 7 6 6 6 6 6 7 6 6 6 6 6 7 7 6 7 6 5 5 6 5 6 6 6 6 5 5 5 4 5 7 6 6 7 10 4 4 5 5 5 5 5 5 5 6 7 8 9 10 11 14 18 19 21 21 22 23 22 23 24 24 24 24 23 23 22 22 22 22 22 22 22 22 21 20 20 19 19
4 5 5 5 5 6 6 5 6 6 7 7 6 6 6 5 5 6 6 6 6 6 6 6 6 5 6 6 7 7 6 6 7 6 6 7 7 9 8 5 6 6 7 5 5 7 7 7 6 6 6 5 7 8 9 10 11 19 17 19 20 21 21 22 21 22 23 23 23 24 24 23 23 22 22 22 22 22 22 22 21 20 20 19 19
6 6 6 6 5 6 5 6 6 6 7 6 7 6 5 6 6 5 5 5 6 7 7 8 8 8 8 7 6 6 7 7 7 7 7 7 7 8 8 6 8 8 6 4 4 3 5 6 7 7 5 4 6 6 7 8 9 14 19 15 21 21 22 22 22 21 22 23 24 23 24 23 22 22 22 22 22 22 22 22 21 21 20 20 19
6 7 7 6 5 6 7 7 7 7 7 7 6 5 5 6 5 6 6 6 6 6 8 9 7 8 6 5 6 7 7 7 7 7 7 7 6 8 8 6 6 8 4 2 3 4 4 4 4 5 6 5 5 5 6 8 9 14 17 13 15 18 18 19 21 22 21 21 23 23 23 25 23 22 22 22 22 22 22 22 21 21 21 20 19
7 7 5 5 6 6 7 8 8 7 6 6 7 6 6 6 6 7 6 6 6 7 7 7 7 7 7 7 7 6 7 7 6 7 7 7 7 7 6 8 7 4 5 3 3 5 8 5 6 7 7 5 5 5 5 6 9 13 13 10 9 15 17 18 18 20 21 21 21 23 22 22 24 22 20 20 21 23 22 21 21 21 21 20 19
7 6 6 5 6 7 7 7 7 7 7 7 7 6 6 6 6 5 6 4 5 5 6 6 7 7 7 6 5 6 6 6 6 7 7 7 6 6 6 7 8 9 4 6 3 5 5 5 4 5 6 6 3 3 4 5 5 8 9 6 7 8 12 14 16 17 19 20 20 19 19 18 21 23 23 21 21 21 22 22 22 22 21 21 20
7 5 7 6 6 6 6 8 8 7 6 6 7 6 6 5 6 5 6 5 4 5 5 5 6 6 5 6 6 7 7 6 6 6 6 5 6 6 5 6 5 6 4 4 3 3 4 4 4 4 4 3 2 1 1 1 2 5 5 5 5 5 7 10 12 15 16 18 19 18 19 20 21 22 22 21 20 21 21 22 22 22 23 21 21
7 7 6 6 6 7 7 8 7 6 7 7 6 6 6 6 6 5 6 4 4 4 4 5 5 5 5 6 6 6 6 6 7 7 6 6 6 5 5 3 4 6 5 6 5 3 4 4 4 4 3 3 2 2 2 2 5 7 5 5 6 7 12 14 14 15 17 17 17 18 17 16 17 18 20 21 21 23 22 20 21 22 22 23 23
7 7 7 7 7 7 7 7 6 7 6 5 5 5 5 5 4 6 5 5 5 6 5 4 5 5 5 6 5 6 6 7 7 7 6 6 6 5 5 5 6 6 6 6 5 4 4 5 5 3 2 3 2 2 2 1 5 7 6 6 5 8 10 10 13 15 16 17 18 18 17 14 13 16 17 19 20 21 21 22 22 22 22 22 22
7 8 7 6 6 6 6 7 7 6 5 5 6 6 5 5 6 6 6 4 5 6 5 4 4 4 4 6 6 6 6 6 6 7 7 7 6 6 6 6 6 6 6 6 7 7 5 5 5 5 4 3 3 4 5 4 2 5 5 6 7 8 6 6 9 13 13 15 16 16 17 17 16 16 17 18 20 21 21 21 21 21 22 22 22
8 8 7 7 7 8 8 7 7 6 5 6 6 4 5 5 5 5 4 5 5 6 5 6 5 5 5 6 6 6 5 6 6 6 7 7 6 6 5 5 6 5 5 6 6 7 4 4 5 5 5 3 3 3 4 4 4 3 4 5 5 5 6 6 7 10 13 13 14 15 15 15 15 16 17 18 19 20 21 21 21 21 21 21 21
7 8 7 6 5 5 5 5 5 5 5 5 4 4 5 5 6 5 5 5 5 6 5 6 6 6 6 6 7 7 5 6 6 7 7 6 5 6 6 6 7 7 6 6 7 6 6 3 4 4 4 2 4 2 4 6 6 3 4 5 4 4 5 6 6 7 12 14 14 14 13 13 14 15 17 18 19 20 21 21 21 21 21 21 21
11 8 7 5 5 4 4 4 4 4 4 5 5 4 4 4 5 4 5 5 6 7 7 7 7 6 6 7 8 7 5 6 7 7 7 7 7 7 7 6 6 7 6 6 6 6 6 5 4 4 3 3 4 5 5 5 4 3 4 5 6 5 5 6 6 6 9 12 13 14 14 14 14 15 16 17 18 19 19 20 20 20 20 20 20
8 3 6 6 4 4 4 4 4 4 4 4 4 4 4 5 6 7 7 7 7 7 7 6 7 7 8 8 8 7 6 7 7 7 6 6 6 6 7 6 6 7 7 6 6 6 5 6 3 6 4 5 5 5 5 4 5 5 5 5 4 5 4 5 5 5 7 10 12 13 14 13 13 14 14 15 16 17 18 19 19 19 19 19 19
6 5 6 4 4 4 5 5 5 4 5 4 5 5 6 6 7 8 8 8 8 7 7 7 7 8 8 8 9 7 6 8 7 7 7 7 7 7 7 6 6 6 6 6 7 5 6 7 5 4 5 4 4 4 3 4 4 4 3 4 4 4 5 5 5 6 9 12 12 12 13 13 13 14 14 15 15 15 16 16 17 17 17 18 19
7 7 6 6 5 6 5 6 6 6 6 5 6 7 7 6 7 7 8 7 7 6 6 7 8 7 8 8 8 8 8 8 8 8 7 8 7 7 8 8 8 7 7 7 6 5 6 6 6 6 4 5 5 4 4 4 5 5 5 6 5 5 6 6 6 5 5 5 5 6 9 11 13 15 15 15 15 15 16 16 17 17 18 18 19
5 5 4 5 5 5 6 5 6 6 6 5 6 6 7 7 7 6 6 6 6 6 6 7 8 8 8 8 8 8 9 9 9 9 8 7 7 8 8 9 9 8 7 7 7 7 6 6 6 6 6 5 5 6 5 3 5 5 6 6 7 6 5 6 8 6 5 7 8 10 10 9 10 10 11 14 15 16 16 17 17 18 18 18 18
6 5 6 6 7 5 6 5 6 5 5 6 6 7 7 7 6 6 6 7 7 7 7 7 8 8 9 9 9 9 9 9 8 8 8 8 6 6 7 6 6 7 7 7 7 7 7 6 7 6 6 6 4 4 3 2 3 4 5 6 8 8 7 5 7 8 5 5 7 6 7 8 9 11 12 12 14 16 16 16 17 17 18 18 18
4 6 5 5 6 6 5 5 6 5 6 6 6 7 6 6 6 7 8 8 8 8 8 8 8 8 9 8 8 8 9 12 13 11 10 9 8 8 8 7 8 9 8 7 7 6 6 6 6 5 5 6 6 5 5 5 7 9 4 5 6 7 7 7 7 6 7 7 6 6 7 6 7 7 7 7 9 12 13 15 13 17 18 18 19
4 4 4 4 4 5 5 6 5 5 5 4 6 11 12 10 8 7 7 7 7 8 8 9 9 8 9 8 8 14 15 15 15 15 15 15 15 11 9 7 8 8 8 8 7 6 7 7 7 6 7 7 7 7 8 7 7 4 5 5 7 7 5 7 8 7 5 5 6 8 8 6 6 7 6 8 8 8 7 8 10 11 15 19 20
3 3 3 3 3 3 4 4 5 5 5 5 11 13 14 15 11 8 7 8 7 8 8 8 9 9 8 8 8 10 12 13 13 15 15 15 16 17 17 16 13 9 8 8 7 6 7 7 7 6 7 9 8 7 8 8 6 7 7 7 8 6 6 7 9 5 3 8 6 7 9 7 6 8 8 8 8 7 7 9 13 17 17 19 20
4 4 4 4 4 4 4 4 5 5 6 8 12 13 14 15 13 10 8 8 8 7 7 8 8 8 9 9 8 7 8 9 9 9 12 15 16 16 16 16 17 17 14 10 8 7 6 7 8 8 7 8 8 7 7 6 8 8 7 7 8 8 8 8 8 8 3 6 7 6 9 5 4 7 8 9 8 7 9 12 15 17 19 19 19
3 4 4 4 4 4 5 5 6 6 6 9 12 14 14 14 15 13 9 8 8 8 8 8 9 8 8 8 8 7 6 12 11 9 8 9 12 15 16 16 16 16 16 16 15 11 8 8 9 9 9 8 9 8 7 7 6 8 7 7 8 8 8 9 9 8 7 5 4 6 8 6 5 7 9 9 8 7 9 11 15 16 18 18 19
4 4 5 5 5 5 5 6 6 6 7 9 13 14 14 15 15 13 8 9 8 8 9 9 8 8 8 8 8 8 8 8 8 9 8 8 8 8 9 8 8 11 13 15 16 17 14 11 10 11 10 8 10 8 8 6 6 8 8 9 7 8 9 11 11 10 5 6 8 6 7 7 5 6 9 10 7 7 8 10 15 16 18 19 19
5 5 6 6 5 5 5 5 6 7 7 12 14 15 15 15 15 12 8 8 8 8 8 8 9 9 9 8 8 9 9 9 8 9 8 8 8 8 8 8 8 8 8 8 8 8 9 9 11 12 12 10 10 10 8 6 8 9 9 10 9 9 9 8 7 5 5 4 6 4 10 8 3 7 10 9 5 7 7 10 15 17 18 19 19
5 5 5 5 6 6 6 7 8 8 8 13 14 15 15 15 15 9 7 8 8 8 8 8 9 8 8 8 9 9 10 9 10 14 12 9 8 8 9 8 8 8 9 9 13 13 12 10 10 11 11 11 10 9 8 8 7 7 8 8 7 5 6 9 10 6 7 5 8 7 7 10 5 7 10 6 4 7 8 7 12 18 19 20 20
6 6 6 6 6 7 8 8 8 8 8 11 14 15 15 16 12 8 8 7 7 8 8 8 8 8 8 8 8 8 8 9 12 14 14 12 9 9 9 9 9 9 9 8 12 16 17 17 17 16 15 15 15 15 14 15 11 9 6 6 9 8 9 10 10 9 10 5 6 10 9 11 7 8 9 6 5 8 8 8 8 13 19 19 21
6 6 6 7 7 7 8 8 8 9 9 10 14 14 14 15 12 9 8 7 8 7 8 7 7 7 9 13 12 9 9 9 12 14 14 11 9 9 9 10 10 10 9 8 7 8 13 16 17 16 15 15 14 15 14 14 14 10 7 10 8 4 9 9 11 9 8 5 7 9 7 10 6 4 7 4 3 4 8 8 8 8 14 17 21
6 6 6 7 7 7 7 8 12 12 9 10 13 14 14 13 10 6 6 6 7 7 6 7 6 6 7 8 13 13 11 10 12 12 13 11 8 8 9 8 9 10 9 7 8 8 6 5 6 6 8 9 9 9 10 16 17 14 10 11 9 9 10 10 10 9 10 9 7 10 9 8 8 5 6 3 5 6 7 8 8 7 6 8 10
Wind_Direction
224 224 221 221 223 227 220 222 223 233 219 223 222 235 230 231 236 235 226 233 236 240 230 232 234 232 223 224 222 223 224 225 222 222 224 224 228 235 233 226 217 218 218 217 215 214 214 216 219 221 221 220 219 218 216 216 217 219 220 221 224 224 224 226 227 228 229 230 233 233 233 235 235 234 236 237 236 238 238 236 237 240 241 243 247
224 224 211 226 221 221 226 228 224 231 224 230 222 227 231 228 237 239 225 226 234 238 226 230 233 230 220 222 221 220 222 225 227 223 222 221 224 232 235 227 217 215 215 214 213 214 215 215 219 221 223 223 222 221 219 217 218 221 223 223 223 223 224 225 226 228 228 229 231 233 233 233 234 236 236 235 238 239 241 242 240 241 242 241 243
225 226 217 225 222 228 237 234 233 234 224 235 193 223 230 230 231 233 225 219 229 233 224 237 240 234 222 221 226 219 221 224 229 230 226 224 222 223 229 228 222 214 213 212 212 213 214 215 217 220 221 222 224 222 222 220 221 223 224 225 226 226 225 224 224 226 228 228 229 230 231 232 232 233 235 235 234 235 238 238 239 240 241 242 243
216 220 212 215 217 217 230 236 237 236 222 223 220 225 216 222 223 227 219 212 215 210 220 237 246 243 227 222 223 221 225 222 225 229 227 224 223 220 223 225 227 216 212 211 211 209 211 212 215 218 220 221 222 223 224 224 225 225 225 224 225 227 227 227 225 224 225 226 228 230 230 231 232 231 231 233 233 233 235 238 239 241 242 244 246
217 213 208 204 215 222 217 213 225 235 231 208 206 239 237 229 201 169 291 310 317 288 292 206 224 234 227 236 228 224 223 220 226 230 230 225 223 218 217 222 223 219 210 212 212 208 208 209 212 216 218 221 221 223 224 226 227 227 227 225 226 227 227 227 228 224 225 226 226 228 229 231 230 231 231 231 232 233 234 235 237 239 241 244 245
201 215 213 205 215 211 221 258 262 263 274 297 266 247 239 286 266 170 272 306 306 300 287 288 298 297 237 206 217 226 220 227 227 226 228 229 225 214 218 211 214 216 218 213 211 209 208 209 211 215 218 220 221 223 224 226 228 228 227 227 226 227 228 228 228 227 226 226 227 227 227 229 230 230 230 232 233 233 234 236 236 238 240 242 245
212 197 206 208 224 230 225 227 223 204 233 235 225 229 231 230 187 231 329 284 275 274 276 294 297 295 302 307 200 211 228 232 241 240 229 230 226 223 216 208 200 205 210 211 214 209 207 210 211 214 217 219 221 223 225 226 227 227 228 228 228 227 227 228 228 226 224 225 226 227 228 228 230 231 230 231 232 231 232 234 236 238 239 241 243
231 222 209 208 217 226 230 247 271 325 304 290 264 255 222 225 249 175 262 286 318 305 316 287 259 267 273 275 265 206 201 240 249 255 255 244 234 228 215 209 203 204 202 205 208 214 209 210 212 212 215 217 219 222 225 226 227 227 228 228 228 228 227 227 227 226 225 224 226 227 229 229 230 231 231 232 233 233 233 233 235 236 237 238 240
219 215 215 220 227 249 260 254 264 256 267 262 242 213 194 217 246 204 157 251 311 290 298 310 306 290 285 296 305 302 259 210 226 244 256 236 227 224 216 214 214 208 200 200 207 212 216 210 210 212 213 216 218 221 224 226 227 227 228 227 227 227 226 227 228 226 225 225 225 226 229 230 229 230 232 232 233 233 232 231 232 233 236 237 239
214 210 213 213 207 225 257 262 249 275 271 233 227 240 216 153 218 338 106 137 254 267 282 295 306 310 307 302 298 305 301 292 241 228 233 253 243 231 220 215 208 208 204 203 205 209 213 218 214 212 214 214 216 218 221 224 225 226 227 226 226 226 226 225 226 227 226 226 227 226 226 229 230 228 229 231 232 233 232 232 233 234 234 235 235
204 206 207 215 213 221 234 256 263 247 238 256 232 221 199 126 216 287 299 201 228 255 262 281 302 304 297 290 292 281 285 280 276 278 264 232 231 228 222 219 213 209 207 205 205 203 208 211 215 219 221 218 215 216 218 222 224 224 225 226 226 225 225 225 225 226 226 225 227 228 226 224 227 230 230 230 232 232 232 231 232 233 234 233 233
200 202 208 212 215 222 232 250 255 230 248 252 250 253 219 226 244 234 298 330 317 269 294 306 304 303 295 293 281 284 283 287 296 295 283 258 235 227 224 221 211 215 214 213 207 206 205 208 212 216 221 223 219 217 219 220 222 222 223 224 225 225 225 225 225 225 225 224 225 228 229 228 227 227 228 229 230 231 230 230 229 230 230 231 233
202 197 207 211 212 221 224 246 221 193 198 249 260 248 217 194 193 170 198 312 315 306 289 330 324 305 304 292 296 283 281 280 274 278 275 263 246 207 222 224 216 214 217 214 211 212 211 210 213 214 217 218 224 222 220 220 221 222 221 223 224 225 225 224 224 225 226 226 225 225 225 225 227 227 226 226 227 227 227 228 229 229 229 230 232
205 201 208 206 211 218 223 233 228 223 204 214 231 235 248 225 187 320 141 211 251 234 264 4 303 276 303 312 308 293 277 279 271 267 270 272 269 260 220 209 220 220 221 217 215 214 217 213 211 214 216 214 216 217 223 224 224 223 221 221 223 223 224 224 223 224 225 225 225 225 224 224 224 228 229 228 228 227 227 229 230 230 230 229 229
209 204 204 205 210 212 223 229 236 226 219 253 270 288 279 261 239 219 271 263 230 247 254 201 255 262 275 326 303 342 329 334 303 292 278 279 281 266 256 230 221 218 216 214 220 219 221 217 212 214 216 215 212 212 215 218 218 218 218 217 221 222 222 222 223 224 224 225 225 223 222 223 223 223 225 227 226 224 224 228 229 227 227 226 226
202 204 211 209 207 213 222 227 236 218 206 228 240 243 238 244 235 220 185 269 259 265 224 210 211 231 311 235 250 59 320 308 297 278 262 268 273 273 251 246 243 229 199 222 228 224 226 222 218 214 215 215 212 210 212 213 218 216 216 215 216 219 220 220 221 222 222 224 224 223 222 221 222 223 223 224 224 224 223 224 227 228 227 227 226
205 200 200 206 209 215 218 224 224 221 207 216 230 234 223 215 209 213 202 219 261 255 265 214 224 197 198 293 307 328 231 266 331 285 285 281 283 303 303 297 290 283 265 236 224 228 227 229 225 218 216 214 213 211 212 216 217 219 217 216 215 215 218 219 219 220 220 221 222 221 221 221 222 222 224 224 223 224 225 225 227 227 227 227 227
205 203 201 200 207 212 215 218 221 224 220 223 226 221 227 222 214 213 229 220 234 254 265 233 228 219 215 218 204 247 284 275 353 300 323 219 269 266 267 271 273 267 253 254 234 227 228 234 228 225 219 215 213 212 211 213 213 213 215 218 216 214 215 216 219 220 220 220 220 220 220 221 221 221 223 225 224 224 224 225 225 226 226 226 225
213 204 206 206 208 212 214 216 219 219 222 220 225 226 229 229 222 213 223 223 209 245 253 258 245 249 230 228 236 247 242 268 264 310 304 296 193 269 275 258 257 260 267 268 268 255 239 229 224 219 219 216 213 214 214 215 213 215 214 216 215 215 215 215 216 218 220 220 219 218 218 218 220 220 222 223 223 223 224 225 225 225 225 225 224
224 220 216 216 215 219 216 217 218 225 217 217 224 228 233 244 228 222 226 221 213 223 251 241 217 252 208 228 285 293 261 244 234 245 268 296 296 268 256 268 261 256 255 261 263 265 258 223 226 222 219 218 215 214 215 216 215 216 219 219 217 215 215 215 214 216 218 219 219 217 216 217 218 219 220 221 222 222 223 225 226 225 224 223 224
222 222 222 217 214 215 212 214 219 224 218 222 226 224 227 237 244 244 241 242 216 217 219 232 215 236 239 247 210 242 264 254 267 229 239 263 274 282 292 262 257 260 262 254 259 266 269 256 237 229 223 222 217 216 215 214 215 215 217 218 218 217 215 214 214 214 216 218 219 218 216 216 216 217 218 219 220 220 222 224 226 226 224 223 223
240 231 229 224 222 217 211 213 217 219 216 220 222 227 233 235 237 236 237 242 231 216 216 229 218 232 218 236 231 237 225 250 247 236 240 223 260 277 286 299 298 279 235 261 263 268 271 268 254 246 242 232 223 219 219 218 217 216 220 220 218 218 217 213 215 213 215 216 218 218 217 216 216 216 216 218 219 219 220 223 225 225 225 224 223
238 236 222 222 223 217 213 215 214 214 217 219 222 224 227 228 238 239 240 236 237 226 233 233 226 230 233 216 229 225 228 228 232 231 225 243 261 264 267 259 267 289 270 249 265 270 269 269 267 242 230 241 233 223 218 219 218 222 222 220 219 218 219 218 214 214 214 215 216 218 219 218 217 216 216 217 218 218 219 222 224 224 224 224 224
241 242 241 232 224 223 220 218 214 213 220 221 226 225 227 227 236 234 240 237 229 221 220 224 220 223 231 222 225 230 235 239 250 245 237 251 250 265 271 273 268 256 277 275 262 269 270 268 267 266 247 237 242 229 222 219 220 223 224 223 218 219 219 218 216 213 213 214 216 217 220 219 218 217 216 216 217 218 219 221 223 223 223 224 224
236 232 234 223 216 219 222 219 218 213 218 216 227 227 232 235 239 243 241 235 219 209 208 218 215 216 225 225 220 223 232 234 240 245 251 252 247 263 263 256 264 276 269 259 272 259 251 267 272 272 279 236 235 235 232 230 229 229 226 226 220 218 218 217 217 213 211 211 214 217 220 222 220 219 218 217 218 219 219 220 222 222 222 222 223
230 226 230 220 210 212 211 216 218 216 212 212 218 222 223 229 238 246 250 244 233 221 224 231 225 225 223 220 218 221 228 231 237 239 242 242 246 244 262 261 250 263 281 282 260 281 306 273 259 267 278 269 236 228 234 231 233 236 231 227 227 223 221 220 219 219 215 211 214 217 218 221 221 220 220 220 219 220 220 220 221 221 221 220 220
231 239 234 214 213 210 207 209 213 217 217 220 224 224 224 226 231 237 243 239 234 228 224 222 224 222 221 219 227 228 233 236 234 242 241 239 239 242 237 265 272 252 265 256 287 246 257 278 270 274 264 256 247 237 240 249 244 242 235 225 229 223 221 222 220 219 220 219 217 218 219 218 220 219 217 218 218 220 220 218 217 218 219 219 218
237 241 243 221 219 217 216 218 217 214 212 213 217 220 222 217 227 228 244 240 234 229 232 226 233 236 236 238 239 245 239 237 234 232 225 228 232 240 232 235 252 275 254 267 260 266 259 262 293 253 256 254 248 191 232 252 270 270 252 230 230 232 226 224 223 224 225 226 226 223 221 218 221 223 220 217 217 217 218 218 218 217 216 216 217
249 241 247 238 234 227 226 230 226 221 218 215 215 215 211 211 219 225 233 241 225 235 236 233 241 245 248 249 245 250 250 249 250 247 249 247 241 237 222 228 224 244 274 275 253 254 293 244 245 287 237 252 241 255 146 151 289 298 267 234 227 225 219 217 223 228 229 230 231 230 228 228 229 228 227 224 221 220 218 218 217 217 220 216 214
232 243 238 241 235 230 230 232 229 219 218 220 214 217 212 214 218 224 232 229 230 239 235 229 240 237 244 248 245 248 248 245 242 243 247 245 241 221 212 230 213 227 226 252 266 217 264 279 235 258 291 265 224 217 208 237 236 254 247 226 223 217 215 213 211 215 220 223 225 227 227 230 232 230 228 228 227 227 225 219 217 216 216 219 219
232 240 246 249 245 240 230 230 225 222 219 222 221 227 218 224 230 231 234 214 220 234 237 218 228 221 230 240 241 244 245 252 256 256 253 243 236 235 235 214 206 214 223 215 252 268 213 249 268 257 262 300 315 337 321 211 247 242 249 238 228 226 221 224 222 219 217 215 218 223 223 221 224 229 231 230 229 229 227 226 225 221 218 216 217
236 239 242 241 241 239 229 224 224 221 219 223 222 226 219 218 225 223 226 200 209 220 235 223 230 234 242 250 249 249 250 251 256 255 253 245 238 245 244 243 236 215 206 208 226 251 244 231 243 269 260 267 294 300 300 289 280 237 219 229 236 237 222 232 234 230 225 221 220 222 223 223 222 226 228 229 228 227 225 224 224 224 223 221 219
235 242 242 239 235 229 223 218 216 218 218 226 223 220 216 223 228 225 233 219 214 227 229 246 245 240 241 247 253 252 250 254 254 254 251 248 248 245 245 244 248 237 206 215 227 242 266 248 241 253 265 279 287 244 265 270 265 278 274 247 235 220 220 224 233 232 231 230 227 224 225 226 228 230 231 229 227 225 224 222 221 221 222 222 222
248 242 245 241 228 211 204 211 213 214 218 225 235 220 227 238 239 214 210 209 218 232 225 235 242 246 244 244 251 255 247 245 249 250 244 249 249 253 253 246 250 251 224 221 230 231 243 273 258 258 273 239 260 263 263 270 273 245 235 251 261 249 237 234 235 240 232 234 237 240 241 239 236 233 233 232 229 226 225 223 220 219 219 220 220
285 253 234 230 222 214 219 223 222 229 227 230 230 219 223 221 228 238 235 234 235 238 236 240 247 250 253 249 250 251 253 256 254 252 250 250 247 245 249 244 248 251 243 219 227 236 232 242 237 249 242 249 226 257 258 256 261 235 231 239 238 242 244 241 241 245 250 241 239 239 240 238 235 233 231 230 228 226 225 224 222 220 218 217 217
247 305 296 258 245 232 231 238 231 235 239 237 233 218 223 229 236 240 244 241 237 236 238 244 247 245 247 253 251 247 250 254 255 252 248 243 243 242 246 249 245 250 251 243 219 229 227 236 241 226 228 228 251 244 252 263 269 270 244 255 250 249 255 261 257 259 262 260 253 249 247 244 240 237 236 233 232 231 228 225 223 221 218 215 214
275 254 255 270 258 245 238 238 239 233 233 231 241 249 245 236 233 235 237 237 235 235 237 239 242 244 246 245 250 245 242 248 253 254 248 247 243 239 239 241 241 239 245 240 240 222 231 235 244 238 230 236 240 245 232 252 269 270 281 265 267 262 256 244 241 244 249 250 250 253 256 252 246 240 237 234 231 232 233 230 227 223 219 215 213
272 266 256 253 237 239 237 243 243 246 248 251 250 250 249 247 245 245 242 237 237 238 240 242 243 243 245 246 247 244 241 239 246 249 248 247 247 247 247 246 242 242 240 243 234 233 227 237 231 255 251 239 260 251 245 229 243 265 281 277 277 260 256 268 252 245 240 239 242 243 248 252 249 241 234 231 228 226 227 228 226 223 219 215 212
258 270 271 270 268 264 266 271 274 275 271 259 253 253 254 252 248 242 242 245 249 247 244 243 244 246 247 247 246 241 241 240 243 245 248 250 250 254 253 247 239 231 235 237 235 233 226 233 236 229 244 246 227 256 260 225 233 228 249 279 279 261 245 243 264 256 241 247 236 234 237 238 244 245 241 237 233 228 225 225 224 223 220 217 213
270 269 279 285 288 285 280 273 269 264 261 263 262 262 260 253 245 242 239 243 244 243 244 243 243 246 248 248 246 240 235 237 238 237 232 243 235 240 243 251 268 260 246 237 236 235 237 235 231 234 222 238 242 240 274 261 266 263 223 225 253 270 266 245 238 257 260 241 259 253 246 248 252 251 249 242 238 234 229 225 224 222 220 216 213
269 266 268 269 273 285 284 277 275 273 269 263 255 252 252 251 237 243 243 244 245 251 253 253 249 247 246 245 244 239 236 237 234 233 232 223 227 240 249 242 240 237 241 243 232 228 230 228 240 232 241 239 239 239 236 230 229 239 234 189 241 250 263 276 267 239 243 252 256 255 254 233 239 241 236 241 238 232 234 229 227 222 220 216 213
294 304 311 310 306 292 295 295 291 282 273 271 264 267 258 256 256 250 247 245 246 247 251 254 252 248 245 242 242 243 243 242 242 242 242 234 228 226 237 235 236 237 234 236 233 226 227 233 231 224 233 237 234 222 229 231 236 242 247 229 245 252 253 263 275 256 227 227 249 257 255 236 225 243 231 240 247 222 231 214 218 217 218 216 213
285 276 266 268 264 259 261 270 281 281 276 272 270 266 266 266 265 263 255 255 246 245 245 246 250 250 249 245 243 246 247 247 248 248 248 244 243 241 236 235 234 231 234 235 238 224 227 235 235 225 229 239 236 223 225 232 226 226 229 230 239 249 246 254 267 289 227 201 223 241 259 241 205 239 239 238 241 230 223 227 218 219 219 214 213
322 324 326 316 315 312 304 296 287 278 273 272 272 273 271 270 268 265 262 259 259 253 247 245 246 246 247 248 245 240 242 241 242 247 247 247 245 244 240 237 239 239 232 227 233 237 227 238 241 235 230 235 242 224 229 219 230 233 232 229 232 234 241 242 245 247 249 190 209 229 254 252 194 235 248 243 238 231 228 224 217 216 219 217 211
319 326 308 312 305 300 292 287 282 278 279 276 275 275 273 271 270 267 268 264 260 259 255 252 249 246 244 246 249 245 241 241 243 242 239 243 247 247 246 248 249 247 246 241 237 237 237 234 238 242 228 234 241 238 221 225 207 227 230 234 235 237 234 243 244 245 246 192 207 236 254 244 194 234 246 245 240 233 235 226 220 216 218 219 214
322 312 306 298 293 287 281 278 278 280 279 281 278 277 276 274 271 270 264 260 257 256 255 253 250 245 237 235 241 247 243 241 240 240 239 240 245 249 251 249 248 250 248 244 244 242 238 239 240 245 239 222 238 237 229 217 210 223 226 239 234 239 239 239 241 240 234 164 209 235 256 249 211 235 248 251 231 238 234 226 214 215 215 215 215
307 299 298 296 290 286 285 282 280 278 273 274 273 274 275 275 275 273 268 263 260 257 256 254 252 249 242 236 236 240 248 246 238 235 238 240 243 246 247 247 244 244 245 245 243 241 240 235 238 243 247 237 236 239 238 220 224 230 226 235 235 236 246 257 269 258 252 199 209 204 255 259 181 221 245 251 239 238 237 231 215 214 214 214 213
303 301 298 291 283 279 274 273 274 273 271 271 272 274 274 274 274 273 267 262 259 256 255 256 254 251 245 241 237 237 239 243 244 241 239 237 237 243 247 247 247 243 242 238 237 237 237 236 233 235 238 239 234 234 231 230 234 240 247 249 256 259 264 260 258 254 247 205 195 206 247 260 193 227 252 247 223 245 241 237 221 214 213 212 212
298 293 283 275 273 273 275 275 275 274 275 274 274 273 273 275 279 275 271 265 257 254 253 253 254 251 249 243 241 240 238 240 243 245 247 243 247 249 251 252 249 247 246 244 239 237 238 238 236 235 235 235 235 237 239 237 234 235 243 259 258 248 247 249 253 251 249 200 202 201 229 255 229 222 255 246 212 240 244 236 232 215 214 213 212
281 278 277 277 275 273 274 274 270 275 276 273 273 275 277 278 278 280 278 275 267 259 258 254 252 252 250 249 248 243 240 242 240 240 244 245 250 251 253 254 256 256 255 250 253 245 235 236 238 241 242 243 245 249 247 246 246 244 240 251 247 236 250 250 258 254 260 218 205 191 221 241 242 198 243 250 231 238 243 241 235 219 213 218 216
276 277 280 280 280 276 271 269 273 274 278 278 278 279 281 280 285 288 274 263 267 264 267 269 266 258 256 254 252 250 246 242 238 238 241 243 249 250 253 259 262 262 259 257 253 258 260 261 256 252 256 250 247 241 242 241 238 236 224 231 240 233 243 245 247 256 260 250 210 176 214 242 232 213 202 251 241 244 231 238 234 223 205 209 220